Time,TemperatureF,DewpointF,PressureIn,WindDirection,WindDirectionDegrees,WindSpeedMPH,WindSpeedGustMPH,Humidity,HourlyPrecipIn,Conditions,Clouds,dailyrainin,SoftwareType,DateUTC
2013-10-25 06:51:00,58.0,51.0,30.19,NNW,345,1.0,4.0,77,0.00,,,0.00,,2013-10-25 12:51:00,
2013-10-25 07:11:00,57.0,50.0,30.20,North,0,2.0,4.0,77,0.00,,,0.00,,2013-10-25 13:11:00,
2013-10-25 07:21:00,57.0,50.0,30.20,NNW,333,0.0,2.0,76,0.00,,,0.00,,2013-10-25 13:21:00,
2013-10-25 07:41:00,56.0,49.0,30.20,NNW,335,0.0,4.0,78,0.00,,,0.00,,2013-10-25 13:41:00,
2013-10-25 07:52:00,56.0,50.0,30.21,North,359,0.0,0.0,79,0.00,,,0.00,,2013-10-25 13:52:00,
2013-10-25 08:22:00,57.0,51.0,30.23,NNE,31,1.0,3.0,81,0.00,,,0.00,,2013-10-25 14:22:00,
2013-10-25 08:42:00,58.0,51.0,30.23,North,6,5.0,8.0,78,0.00,,,0.00,,2013-10-25 14:42:00,
2013-10-25 08:52:00,59.0,50.0,30.24,North,1,4.0,8.0,73,0.00,,,0.00,,2013-10-25 14:52:00,
2013-10-25 09:11:00,61.0,50.0,30.25,North,353,7.0,11.0,68,0.00,,,0.00,,2013-10-25 15:11:00,
2013-10-25 09:21:00,62.0,51.0,30.25,North,3,5.0,10.0,67,0.00,,,0.00,,2013-10-25 15:21:00,
2013-10-25 09:53:00,64.0,52.0,30.26,NNE,20,4.0,10.0,65,0.00,,,0.00,,2013-10-25 15:53:00,
2013-10-25 10:23:00,67.0,50.0,30.26,NE,34,3.0,6.0,54,0.00,,,0.00,,2013-10-25 16:23:00,
2013-10-25 10:43:00,70.0,46.0,30.25,East,91,7.0,17.0,42,0.00,,,0.00,,2013-10-25 16:43:00,
2013-10-25 10:53:00,71.0,46.0,30.25,SE,139,8.0,16.0,41,0.00,,,0.00,,2013-10-25 16:53:00,
2013-10-25 11:22:00,72.0,46.0,30.24,SE,132,6.0,17.0,39,0.00,,,0.00,,2013-10-25 17:22:00,
2013-10-25 11:52:00,73.0,47.0,30.24,South,186,5.0,17.0,39,0.00,,,0.00,,2013-10-25 17:52:00,
2013-10-25 12:12:00,73.0,46.0,30.24,South,184,8.0,16.0,38,0.00,,,0.00,,2013-10-25 18:12:00,
2013-10-25 12:21:00,73.0,47.0,30.23,SW,219,5.0,13.0,39,0.00,,,0.00,,2013-10-25 18:21:00,
2013-10-25 12:52:00,74.0,45.0,30.22,SSE,152,7.0,12.0,36,0.00,,,0.00,,2013-10-25 18:52:00,
2013-10-25 13:11:00,75.0,46.0,30.21,SSW,207,7.0,13.0,36,0.00,,,0.00,,2013-10-25 19:11:00,
2013-10-25 13:22:00,75.0,45.0,30.21,SW,215,7.0,13.0,35,0.00,,,0.00,,2013-10-25 19:22:00,
2013-10-25 13:42:00,75.0,45.0,30.20,SSW,197,9.0,15.0,34,0.00,,,0.00,,2013-10-25 19:42:00,
2013-10-25 13:52:00,76.0,45.0,30.19,SW,235,7.0,14.0,33,0.00,,,0.00,,2013-10-25 19:52:00,
2013-10-25 14:22:00,77.0,45.0,30.17,ESE,111,5.0,14.0,32,0.00,,,0.00,,2013-10-25 20:22:00,
2013-10-25 14:52:00,78.0,43.0,30.16,SE,136,6.0,11.0,29,0.00,,,0.00,,2013-10-25 20:52:00,
2013-10-25 15:22:00,78.0,43.0,30.14,SW,217,7.0,12.0,29,0.00,,,0.00,,2013-10-25 21:22:00,
2013-10-25 15:54:00,79.0,42.0,30.14,SSW,195,6.0,9.0,27,0.00,,,0.00,,2013-10-25 21:54:00,
2013-10-25 16:23:00,78.0,41.0,30.14,SSE,160,5.0,11.0,27,0.00,,,0.00,,2013-10-25 22:23:00,
2013-10-25 16:42:00,79.0,42.0,30.14,SSW,197,5.0,12.0,27,0.00,,,0.00,,2013-10-25 22:42:00,
2013-10-25 16:53:00,79.0,42.0,30.14,SSW,194,6.0,10.0,27,0.00,,,0.00,,2013-10-25 22:53:00,
2013-10-25 17:22:00,78.0,42.0,30.13,South,188,4.0,10.0,28,0.00,,,0.00,,2013-10-25 23:22:00,
2013-10-25 17:52:00,78.0,43.0,30.13,SSW,210,3.0,8.0,29,0.00,,,0.00,,2013-10-25 23:52:00,
2013-10-25 18:11:00,77.0,43.0,30.14,SW,215,4.0,6.0,30,0.00,,,0.00,,2013-10-26 00:11:00,
2013-10-25 18:22:00,76.0,43.0,30.14,SSW,203,2.0,4.0,31,0.00,,,0.00,,2013-10-26 00:22:00,
2013-10-25 18:42:00,76.0,44.0,30.14,South,183,1.0,4.0,32,0.00,,,0.00,,2013-10-26 00:42:00,
2013-10-25 18:52:00,74.0,44.0,30.14,SE,127,3.0,4.0,34,0.00,,,0.00,,2013-10-26 00:52:00,
2013-10-25 19:12:00,73.0,44.0,30.14,SSW,204,1.0,4.0,36,0.00,,,0.00,,2013-10-26 01:12:00,
2013-10-25 19:22:00,71.0,45.0,30.14,South,174,0.0,2.0,40,0.00,,,0.00,,2013-10-26 01:22:00,
2013-10-25 19:52:00,68.0,46.0,30.15,South,174,0.0,0.0,46,0.00,,,0.00,,2013-10-26 01:52:00,
2013-10-25 20:12:00,66.0,47.0,30.15,South,174,0.0,0.0,51,0.00,,,0.00,,2013-10-26 02:12:00,
2013-10-25 20:22:00,65.0,48.0,30.16,South,174,0.0,0.0,54,0.00,,,0.00,,2013-10-26 02:22:00,
2013-10-25 20:43:00,65.0,47.0,30.16,ESE,113,0.0,2.0,52,0.00,,,0.00,,2013-10-26 02:43:00,
2013-10-25 20:52:00,66.0,47.0,30.16,SSW,194,1.0,3.0,50,0.00,,,0.00,,2013-10-26 02:52:00,
2013-10-25 21:12:00,65.0,48.0,30.16,SW,229,1.0,3.0,54,0.00,,,0.00,,2013-10-26 03:12:00,
2013-10-25 21:22:00,65.0,48.0,30.16,SW,222,3.0,5.0,55,0.00,,,0.00,,2013-10-26 03:22:00,
2013-10-25 21:54:00,63.0,48.0,30.17,WSW,238,0.0,0.0,59,0.00,,,0.00,,2013-10-26 03:54:00,
2013-10-25 22:24:00,60.0,49.0,30.18,WSW,238,0.0,0.0,66,0.00,,,0.00,,2013-10-26 04:24:00,
2013-10-25 22:54:00,60.0,49.0,30.19,WSW,252,0.0,4.0,66,0.00,,,0.00,,2013-10-26 04:54:00,
2013-10-25 23:13:00,60.0,49.0,30.19,NW,304,0.0,0.0,66,0.00,,,0.00,,2013-10-26 05:13:00,
2013-10-25 23:23:00,59.0,48.0,30.19,NW,304,0.0,0.0,68,0.00,,,0.00,,2013-10-26 05:23:00,
2013-10-25 23:52:00,59.0,48.0,30.19,NNE,15,4.0,8.0,66,0.00,,,0.00,,2013-10-26 05:52:00,